Hibbing, MN

1:50 PM CDT on May 29, 2017 (GMT -0500)
Chisholm-hibbing

Weather History for KHIB - January, 2014

Change the Weather History Date:

Friday, January 10, 2014

  Actual Average Record
Temperature  
Mean Temperature 20 °F -  
Max Temperature 26 °F 14 °F 51 °F (2000)
Min Temperature 15 °F -8 °F -33 °F (1979)
Degree Days  
Heating Degree Days 44    
Moisture  
Dew Point 19 °F    
Average Humidity 89    
Maximum Humidity 93    
Minimum Humidity 80    
Precipitation  
Precipitation 0.00 in - - ()
Sea Level Pressure  
Sea Level Pressure 29.62 in    
Wind  
Wind Speed 8 mph (South)    
Max Wind Speed 12 mph    
Max Gust Speed 20 mph    
Visibility 3 miles    
Events      
Averages and records for this station are not official NWS values.
T = Trace of Precipitation, MM = Missing Value Source: NWS Daily Summary

Daily Weather History Graph

Daily Weather History Graph

Search for Another Location

Airport or City:

Trip Planner

Search our weather history database for the weather conditions in past years. The results will help you decide how hot, cold, wet, or windy it might be!

Date:

Astronomy

Jan. 10, 2014 Rise Set
Actual Time 7:56 AM CST 4:41 PM CST
Civil Twilight 7:21 AM CST 5:16 PM CST
Nautical Twilight 6:43 AM CST 5:54 PM CST
Astronomical Twilight 6:06 AM CST 6:31 PM CST
Moon 12:51 PM CST (1/10) 2:58 AM CST (1/10)
Length of Visible Light 9h 54m
Length of Day
8h 44m
Waxing Gibbous, 75% of the Moon is Illuminated
Jan 10
Waxing Gibbous
Jan 15
Full
Jan 23
Last Quarter
Jan 30
New
Feb 6
First Quarter

Hourly Weather History & Observations

Time (CST) Temp. Windchill Dew Point Humidity Pressure Visibility Wind Dir Wind Speed Gust Speed Precip Events Conditions
12:53 AM 15.1 °F 3.3 °F 10.0 °F 80% 29.83 in 8.0 mi South 9.2 mph - N/A   Overcast
1:53 AM 16.0 °F 5.3 °F 12.0 °F 84% 29.83 in 7.0 mi South 8.1 mph - N/A   Overcast
3:53 AM 19.0 °F 10.0 °F 16.0 °F 88% 29.80 in 3.0 mi South 6.9 mph - N/A   Overcast
4:53 AM 19.0 °F 11.1 °F 16.0 °F 88% 29.78 in 3.0 mi South 5.8 mph - N/A   Overcast
5:53 AM 19.9 °F 9.3 °F 16.0 °F 85% 29.77 in 3.0 mi South 9.2 mph 17.3 mph N/A   Overcast
6:53 AM 19.9 °F 9.3 °F 16.0 °F 85% 29.75 in 4.0 mi South 9.2 mph 18.4 mph N/A   Overcast
7:16 AM 19.4 °F 8.6 °F 15.8 °F 86% 29.67 in 4.0 mi South 9.2 mph - N/A   Overcast
7:53 AM 19.0 °F 7.5 °F 16.0 °F 88% 29.75 in 4.0 mi South 10.4 mph - N/A   Overcast
8:21 AM 19.4 °F 8.6 °F 15.8 °F 86% 29.67 in 2.0 mi South 9.2 mph - N/A   Overcast
8:33 AM 17.6 °F 8.2 °F 15.8 °F 93% 29.68 in 1.8 mi South 6.9 mph 19.6 mph N/A   Overcast
8:53 AM 19.0 °F 6.8 °F 15.1 °F 85% 29.75 in 2.0 mi South 11.5 mph 19.6 mph N/A   Overcast
9:19 AM 19.4 °F 9.5 °F 15.8 °F 86% 29.67 in 3.0 mi South 8.1 mph - N/A   Overcast
9:29 AM 19.4 °F 8.6 °F 15.8 °F 86% 29.67 in 2.5 mi South 9.2 mph - N/A   Overcast
10:53 AM 21.0 °F 14.6 °F 18.0 °F 88% 29.72 in 2.5 mi South 4.6 mph - N/A   Overcast
11:25 AM 21.2 °F 10.1 °F 17.6 °F 86% 29.62 in 3.0 mi South 10.4 mph - N/A   Overcast
11:53 AM 21.9 °F 11.7 °F 19.0 °F 89% 29.68 in 3.0 mi South 9.2 mph - N/A   Overcast
12:12 PM 21.2 °F 12.6 °F 19.4 °F 93% 29.59 in 2.5 mi South 6.9 mph - N/A   Overcast
12:19 PM 21.2 °F 9.5 °F 19.4 °F 93% 29.59 in 3.0 mi South 11.5 mph 16.1 mph N/A   Overcast
12:27 PM 21.2 °F 12.6 °F 19.4 °F 93% 29.59 in 2.5 mi South 6.9 mph 16.1 mph N/A   Overcast
12:53 PM 23.0 °F 13.9 °F 19.9 °F 88% 29.66 in 2.5 mi South 8.1 mph - N/A   Overcast
1:46 PM 24.8 °F 16.9 °F 21.2 °F 86% 29.55 in 3.0 mi Variable 6.9 mph - N/A   Overcast
1:53 PM 24.1 °F 16.0 °F 21.0 °F 88% 29.62 in 2.5 mi South 6.9 mph - N/A   Overcast
2:12 PM 24.8 °F 16.1 °F 21.2 °F 86% 29.53 in 3.0 mi South 8.1 mph - N/A   Overcast
4:53 PM 25.0 °F 18.1 °F 21.9 °F 88% 29.58 in 5.0 mi South 5.8 mph - N/A   Overcast
7:37 PM 24.8 °F 20.5 °F 23.0 °F 93% 29.47 in 3.0 mi Variable 3.5 mph - N/A   Overcast
7:53 PM 25.0 °F 18.1 °F 23.0 °F 92% 29.53 in 3.0 mi South 5.8 mph - N/A   Overcast
8:02 PM 24.8 °F 20.5 °F 23.0 °F 93% 29.46 in 2.5 mi South 3.5 mph - N/A   Overcast
8:53 PM 26.1 °F 20.5 °F 24.1 °F 92% 29.52 in 2.0 mi South 4.6 mph - N/A   Overcast
9:24 PM 26.6 °F 22.6 °F 24.8 °F 93% 29.45 in 1.5 mi SSW 3.5 mph - N/A   Overcast
9:53 PM 26.1 °F - 24.1 °F 92% 29.52 in 1.5 mi Calm Calm - N/A   Overcast
10:29 PM 26.6 °F 21.2 °F 24.8 °F 93% 29.44 in 2.5 mi SW 4.6 mph - N/A   Overcast
11:37 PM 26.6 °F 22.6 °F 24.8 °F 93% 29.42 in 3.0 mi SW 3.5 mph - N/A   Overcast
11:50 PM 26.6 °F - 24.8 °F 93% 29.42 in 2.5 mi Calm Calm - N/A   Overcast
11:53 PM 26.1 °F - 24.1 °F 92% 29.48 in 2.5 mi Calm Calm - N/A   Overcast